Find Starlink 37703

NORAD ID: 100418 Int'l Des: 2026-192 Owner: SPXS Country: US Constellation: starlink operational

当前视图

正在加载3D地球...

About Starlink 37703

Starlink 37703 (NORAD 100418) is a starlink constellation satellite launched Aug 21, 2026 by SPXS of US. with a mass of 575.00 kg.

即将过境

Passes for default location (London). Set your location on the main map for personalized predictions.

高度历史

Loading altitude history...

两行轨道根数

1 A0418U 26192Q 26255.24468698 .00269818 00000-0 13914-2 0 9994
2 A0418 53.1606 345.9609 0001129 97.2245 262.8906 15.79858449 4629
Epoch: Sep 12, 2026 • Age: 11 hours

当前状态

高度 330.3 km
远地点 / 近地点 N/A
速度 7.71 km/s
星下点 11.81°N, 112.58°E
发射日期 Aug 21, 2026
运行时间 22 days
类型 internet

技术详情

分类 Payload
质量 575.00 kg
干质量 530.00 kg
总质量 575.00 kg
长度 0.30 m
直径 4.10 m
跨度 29.00 m
形状 Box + pan
制造商 SPXS
平台类型 Starlink V2MO
阶段状态 In Orbit
所有者/国家 SPXS/US

Most Searched